| time (UTC) | temp C | wind direction | speed KPH | gust KPH | rain 1hr cm | rain 24hr cm | rain mn cm | humidity % | barometer mb |
| 20260901022003 | 21 | 280 | 0.0 | 0.0 | 0.00 | 0.10 | 0.10 | 91 | 1021.5 |
| 20260901021003 | 21 | 280 | 0.0 | 0.0 | 0.00 | 0.10 | 0.10 | 91 | 1021.3 |
| 20260901020003 | 21 | 280 | 0.0 | 0.0 | 0.00 | 0.10 | 0.10 | 91 | 1021.1 |
| 20260901015004 | 21 | 280 | 0.0 | 0.0 | 0.00 | 0.10 | 0.10 | 90 | 1021.1 |
| 20260901014003 | 22 | 280 | 0.0 | 0.0 | 0.00 | 0.10 | 0.10 | 90 | 1021.0 |
| 20260901013003 | 22 | 280 | 0.0 | 0.0 | 0.00 | 0.10 | 0.10 | 90 | 1020.8 |
| 20260901012003 | 22 | 280 | 0.0 | 0.0 | 0.00 | 0.10 | 0.10 | 90 | 1020.6 |
| 20260901011003 | 22 | 280 | 0.0 | 1.6 | 0.00 | 0.10 | 0.10 | 90 | 1020.6 |
| 20260901010003 | 22 | 280 | 0.0 | 0.0 | 0.00 | 0.10 | 0.10 | 90 | 1020.5 |
| 20260901005003 | 22 | 280 | 0.0 | 0.0 | 0.00 | 0.10 | 0.10 | 90 | 1020.5 |
| 20260901004004 | 22 | 280 | 0.0 | 0.0 | 0.00 | 0.10 | 0.10 | 90 | 1020.3 |
| 20260901003003 | 23 | 280 | 0.0 | 0.0 | 0.00 | 0.10 | 0.10 | 90 | 1020.4 |
| 20260831232004 | 24 | 294 | 0.0 | 3.2 | 0.03 | 0.10 | 0.10 | 90 | 1020.1 |
| 20260831231003 | 24 | 294 | 1.6 | 4.8 | 0.05 | 0.05 | 0.05 | 90 | 1020.1 |
| 20260831230004 | 24 | 294 | 0.0 | 4.8 | 0.05 | 0.05 | 0.05 | 90 | 1020.2 |
| 20260831225004 | 23 | 294 | 1.6 | 3.2 | 0.05 | 0.05 | 0.05 | 90 | 1020.3 |
| 20260831224003 | 23 | 294 | 0.0 | 4.8 | 0.05 | 0.05 | 0.05 | 90 | 1020.3 |
| 20260831223003 | 23 | 294 | 1.6 | 4.8 | 0.05 | 0.05 | 0.05 | 90 | 1020.3 |
| 20260831211004 | 32 | 293 | 4.8 | 8.0 | 0.00 | 0.00 | 0.00 | 59 | 1020.6 |
| 20260831210004 | 32 | 293 | 3.2 | 4.8 | 0.00 | 0.00 | 0.00 | 58 | 1020.6 |
| 20260831205004 | 32 | 293 | 3.2 | 4.8 | 0.00 | 0.00 | 0.00 | 57 | 1020.6 |
| 20260831204004 | 31 | 293 | 3.2 | 11.3 | 0.00 | 0.00 | 0.00 | 59 | 1020.8 |
| 20260831203004 | 31 | 293 | 4.8 | 11.3 | 0.00 | 0.00 | 0.00 | 61 | 1020.8 |
| 20260831181003 | 29 | 273 | 1.6 | 4.8 | 0.00 | 0.00 | 0.00 | 67 | 1022.0 |
| 20260831180003 | 29 | 273 | 1.6 | 4.8 | 0.00 | 0.00 | 0.00 | 69 | 1022.2 |
| 20260831175003 | 29 | 273 | 1.6 | 9.7 | 0.00 | 0.00 | 0.00 | 66 | 1022.2 |
| 20260831174003 | 29 | 273 | 1.6 | 4.8 | 0.00 | 0.00 | 0.00 | 67 | 1022.2 |
| 20260831173003 | 29 | 273 | 4.8 | 11.3 | 0.00 | 0.00 | 0.00 | 66 | 1022.4 |
| 20260831172004 | 29 | 273 | 3.2 | 4.8 | 0.00 | 0.00 | 0.00 | 70 | 1022.4 |
| 20260831171004 | 29 | 273 | 3.2 | 9.7 | 0.00 | 0.00 | 0.00 | 68 | 1022.6 |
| 20260831151003 | 25 | 355 | 0.0 | 0.0 | 0.00 | 0.00 | 0.00 | 84 | 1023.4 |
| 20260831150003 | 25 | 355 | 0.0 | 0.0 | 0.00 | 0.00 | 0.00 | 85 | 1023.4 |
| 20260831145003 | 25 | 355 | 0.0 | 0.0 | 0.00 | 0.00 | 0.00 | 85 | 1023.4 |
| 20260831144004 | 25 | 355 | 0.0 | 4.8 | 0.00 | 0.00 | 0.00 | 86 | 1023.5 |
| 20260831143003 | 25 | 355 | 0.0 | 4.8 | 0.00 | 0.00 | 0.00 | 85 | 1023.3 |
| 20260831142003 | 25 | 355 | 1.6 | 8.0 | 0.00 | 0.00 | 0.00 | 86 | 1023.3 |
| 20260831141004 | 24 | 355 | 0.0 | 4.8 | 0.00 | 0.00 | 0.00 | 86 | 1023.1 |
| 20260831140003 | 23 | 355 | 0.0 | 3.2 | 0.00 | 0.00 | 0.00 | 88 | 1023.1 |
| 20260831135004 | 23 | 355 | 0.0 | 0.0 | 0.00 | 0.00 | 0.00 | 90 | 1023.1 |
| 20260831134003 | 22 | 355 | 0.0 | 0.0 | 0.00 | 0.00 | 0.00 | 91 | 1023.1 |
| 20260831133004 | 22 | 355 | 0.0 | 1.6 | 0.00 | 0.00 | 0.00 | 91 | 1023.2 |
| 20260831132003 | 22 | 355 | 0.0 | 3.2 | 0.00 | 0.00 | 0.00 | 90 | 1023.2 |
| 20260831131004 | 21 | 350 | 0.0 | 1.6 | 0.00 | 0.00 | 0.00 | 91 | 1023.4 |
| 20260831130004 | 21 | 351 | 0.0 | 3.2 | 0.00 | 0.00 | 0.00 | 91 | 1023.4 |
| 20260831125004 | 20 | 351 | 0.0 | 1.6 | 0.00 | 0.00 | 0.00 | 91 | 1023.1 |
| 20260831124004 | 20 | 351 | 0.0 | 0.0 | 0.00 | 0.00 | 0.00 | 91 | 1023.1 |
| 20260831123003 | 20 | 351 | 0.0 | 0.0 | 0.00 | 0.00 | 0.00 | 91 | 1023.0 |
| 20260831122004 | 20 | 351 | 0.0 | 0.0 | 0.00 | 0.00 | 0.00 | 91 | 1022.9 |
| 20260831111004 | 19 | 351 | 0.0 | 0.0 | 0.00 | 0.00 | 0.00 | 91 | 1022.5 |
| 20260831110003 | 19 | 351 | 0.0 | 1.6 | 0.00 | 0.00 | 0.00 | 91 | 1022.4 |
| 20260831105004 | 19 | 351 | 0.0 | 0.0 | 0.00 | 0.00 | 0.00 | 91 | 1022.1 |
| 20260831104003 | 19 | 351 | 0.0 | 0.0 | 0.00 | 0.00 | 0.00 | 92 | 1022.1 |
| 20260831103003 | 19 | 351 | 0.0 | 0.0 | 0.00 | 0.00 | 0.00 | 91 | 1022.1 |
| 20260831102004 | 20 | 351 | 0.0 | 0.0 | 0.00 | 0.00 | 0.00 | 91 | 1022.0 |
| 20260831091003 | 20 | 350 | 0.0 | 0.0 | 0.00 | 0.00 | 0.00 | 91 | 1022.0 |
| 20260831090004 | 20 | 350 | 0.0 | 0.0 | 0.00 | 0.00 | 0.00 | 92 | 1022.0 |
| 20260831085004 | 20 | 350 | 0.0 | 0.0 | 0.00 | 0.00 | 0.00 | 91 | 1021.8 |
| 20260831084004 | 20 | 351 | 0.0 | 0.0 | 0.00 | 0.00 | 0.00 | 91 | 1021.9 |
| 20260831083003 | 20 | 351 | 0.0 | 0.0 | 0.00 | 0.00 | 0.00 | 91 | 1021.7 |
| 20260831082004 | 20 | 351 | 0.0 | 0.0 | 0.00 | 0.00 | 0.00 | 91 | 1021.6 |